Year,Month,Day,Hour,Minute,Value (Times are PST for temperature in C)
2016,08,13,00,00,16.20
2016,08,13,00,01,16.20
2016,08,13,00,02,16.20
2016,08,13,00,03,16.20
2016,08,13,00,04,16.20
2016,08,13,00,05,16.20
2016,08,13,00,06,16.20
2016,08,13,00,07,16.20
2016,08,13,00,08,16.20
2016,08,13,00,09,16.20
2016,08,13,00,10,16.20
2016,08,13,00,11,16.20
2016,08,13,00,12,16.20
2016,08,13,00,13,16.20
2016,08,13,00,14,16.20
2016,08,13,00,15,16.20
2016,08,13,00,16,16.20
2016,08,13,00,17,16.20
2016,08,13,00,18,16.30
2016,08,13,00,19,16.30
2016,08,13,00,20,16.30
2016,08,13,00,21,16.30
2016,08,13,00,22,16.30
2016,08,13,00,23,16.30
2016,08,13,00,24,16.30
2016,08,13,00,25,16.30
2016,08,13,00,26,16.30
2016,08,13,00,27,16.30
2016,08,13,00,28,16.30
2016,08,13,00,29,16.30
2016,08,13,00,30,16.30
2016,08,13,00,31,16.30
2016,08,13,00,32,16.30
2016,08,13,00,33,16.30
2016,08,13,00,34,16.30
2016,08,13,00,35,16.30
2016,08,13,00,36,16.30
2016,08,13,00,37,16.30
2016,08,13,00,38,16.30
2016,08,13,00,39,16.30
2016,08,13,00,40,16.30
2016,08,13,00,41,16.30
2016,08,13,00,42,16.30
2016,08,13,00,43,16.30
2016,08,13,00,44,16.30
2016,08,13,00,45,16.30
2016,08,13,00,46,16.30
2016,08,13,00,47,16.30
2016,08,13,00,48,16.30
2016,08,13,00,49,16.30
2016,08,13,00,50,16.30
2016,08,13,00,51,16.30
2016,08,13,00,52,16.30
2016,08,13,00,53,16.40
2016,08,13,00,54,16.40
2016,08,13,00,55,16.40
2016,08,13,00,56,16.30
2016,08,13,00,57,16.30
2016,08,13,00,58,16.30
2016,08,13,00,59,16.20
2016,08,13,01,00,16.20
2016,08,13,01,01,16.20
2016,08,13,01,02,16.20
2016,08,13,01,03,16.10
2016,08,13,01,04,16.10
2016,08,13,01,05,16.10
2016,08,13,01,06,16.10
2016,08,13,01,07,16.10
2016,08,13,01,08,16.10
2016,08,13,01,09,16.10
2016,08,13,01,10,16.10
2016,08,13,01,11,16.10
2016,08,13,01,12,16.10
2016,08,13,01,13,16.20
2016,08,13,01,14,16.20
2016,08,13,01,15,16.20
2016,08,13,01,16,16.30
2016,08,13,01,17,16.30
2016,08,13,01,18,16.40
2016,08,13,01,19,16.40
2016,08,13,01,20,16.40
2016,08,13,01,21,16.40
2016,08,13,01,22,16.40
2016,08,13,01,23,16.50
2016,08,13,01,24,16.60
2016,08,13,01,25,16.60
2016,08,13,01,26,16.60
2016,08,13,01,27,16.70
2016,08,13,01,28,16.70
2016,08,13,01,29,16.70
2016,08,13,01,30,16.80
2016,08,13,01,31,16.90
2016,08,13,01,32,16.90
2016,08,13,01,33,17.00
2016,08,13,01,34,17.10
2016,08,13,01,35,17.20
2016,08,13,01,36,17.30
2016,08,13,01,37,17.30
2016,08,13,01,38,17.40
2016,08,13,01,39,17.40
2016,08,13,01,40,17.50
2016,08,13,01,41,17.50
2016,08,13,01,42,17.60
2016,08,13,01,43,17.60
2016,08,13,01,44,17.70
2016,08,13,01,45,17.70
2016,08,13,01,46,17.80
2016,08,13,01,47,17.80
2016,08,13,01,48,17.80
2016,08,13,01,49,17.80
2016,08,13,01,50,17.80
2016,08,13,01,51,17.80
2016,08,13,01,52,17.80
2016,08,13,01,53,17.80
2016,08,13,01,54,17.80
2016,08,13,01,55,17.80
2016,08,13,01,56,17.80
2016,08,13,01,57,17.80
2016,08,13,01,58,17.80
2016,08,13,01,59,17.80
2016,08,13,02,00,17.80
2016,08,13,02,01,17.80
2016,08,13,02,02,17.80
2016,08,13,02,03,17.80
2016,08,13,02,04,17.80
2016,08,13,02,05,17.70
2016,08,13,02,06,17.70
2016,08,13,02,07,17.70
2016,08,13,02,08,17.70
2016,08,13,02,09,17.70
2016,08,13,02,10,17.60
2016,08,13,02,11,17.60
2016,08,13,02,12,17.60
2016,08,13,02,13,17.60
2016,08,13,02,14,17.60
2016,08,13,02,15,17.50
2016,08,13,02,16,17.50
2016,08,13,02,17,17.50
2016,08,13,02,18,17.50
2016,08,13,02,19,17.50
2016,08,13,02,20,17.50
2016,08,13,02,21,17.50
2016,08,13,02,22,17.50
2016,08,13,02,23,17.50
2016,08,13,02,24,17.50
2016,08,13,02,25,17.50
2016,08,13,02,26,17.50
2016,08,13,02,27,17.40
2016,08,13,02,28,17.40
2016,08,13,02,29,17.40
2016,08,13,02,30,17.40
2016,08,13,02,31,17.40
2016,08,13,02,32,17.40
2016,08,13,02,33,17.40
2016,08,13,02,34,17.40
2016,08,13,02,35,17.40
2016,08,13,02,36,17.40
2016,08,13,02,37,17.30
2016,08,13,02,38,17.30
2016,08,13,02,39,17.20
2016,08,13,02,40,17.10
2016,08,13,02,41,17.00
2016,08,13,02,42,17.00
2016,08,13,02,43,16.90
2016,08,13,02,44,16.90
2016,08,13,02,45,16.90
2016,08,13,02,46,16.80
2016,08,13,02,47,16.80
2016,08,13,02,48,16.80
2016,08,13,02,49,16.70
2016,08,13,02,50,16.70
2016,08,13,02,51,16.70
2016,08,13,02,52,16.70
2016,08,13,02,53,16.70
2016,08,13,02,54,16.70
2016,08,13,02,55,16.70
2016,08,13,02,56,16.70
2016,08,13,02,57,16.70
2016,08,13,02,58,16.70
2016,08,13,02,59,16.60
2016,08,13,03,00,16.60
2016,08,13,03,01,16.60
2016,08,13,03,02,16.60
2016,08,13,03,03,16.60
2016,08,13,03,04,16.60
2016,08,13,03,05,16.60
2016,08,13,03,06,16.60
2016,08,13,03,07,16.60
2016,08,13,03,08,16.40
2016,08,13,03,09,16.40
2016,08,13,03,10,16.40
2016,08,13,03,11,16.40
2016,08,13,03,12,16.40
2016,08,13,03,13,16.40
2016,08,13,03,14,16.40
2016,08,13,03,15,16.40
2016,08,13,03,16,16.50
2016,08,13,03,17,16.60
2016,08,13,03,18,16.60
2016,08,13,03,19,16.60
2016,08,13,03,20,16.70
2016,08,13,03,21,16.70
2016,08,13,03,22,16.70
2016,08,13,03,23,16.70
2016,08,13,03,24,16.70
2016,08,13,03,25,16.70
2016,08,13,03,26,16.70
2016,08,13,03,27,16.70
2016,08,13,03,28,16.70
2016,08,13,03,29,16.70
2016,08,13,03,30,16.70
2016,08,13,03,31,16.70
2016,08,13,03,32,16.70
2016,08,13,03,33,16.70
2016,08,13,03,34,16.70
2016,08,13,03,35,16.70
2016,08,13,03,36,16.70
2016,08,13,03,37,16.70
2016,08,13,03,38,16.70
2016,08,13,03,39,16.70
2016,08,13,03,40,16.70
2016,08,13,03,41,16.70
2016,08,13,03,42,16.70
2016,08,13,03,43,16.70
2016,08,13,03,44,16.70
2016,08,13,03,45,16.70
2016,08,13,03,46,16.70
2016,08,13,03,47,16.70
2016,08,13,03,48,16.70
2016,08,13,03,49,16.70
2016,08,13,03,50,16.70
2016,08,13,03,51,16.70
2016,08,13,03,52,16.70
2016,08,13,03,53,16.70
2016,08,13,03,54,16.70
2016,08,13,03,55,16.70
2016,08,13,03,56,16.70
2016,08,13,03,57,16.70
2016,08,13,03,58,16.70
2016,08,13,03,59,16.70
2016,08,13,04,00,16.70
2016,08,13,04,01,16.70
2016,08,13,04,02,16.70
2016,08,13,04,03,16.80
2016,08,13,04,04,16.80
2016,08,13,04,05,16.80
2016,08,13,04,06,16.80
2016,08,13,04,07,16.80
2016,08,13,04,08,16.70
2016,08,13,04,09,16.70
2016,08,13,04,10,16.70
2016,08,13,04,11,16.70
2016,08,13,04,12,16.70
2016,08,13,04,13,16.70
2016,08,13,04,14,16.70
2016,08,13,04,15,16.70
2016,08,13,04,16,16.70
2016,08,13,04,17,16.70
2016,08,13,04,18,16.80
2016,08,13,04,19,16.90
2016,08,13,04,20,16.90
2016,08,13,04,21,16.90
2016,08,13,04,22,17.00
2016,08,13,04,23,17.00
2016,08,13,04,24,17.00
2016,08,13,04,25,17.00
2016,08,13,04,26,17.10
2016,08,13,04,27,17.10
2016,08,13,04,28,17.10
2016,08,13,04,29,17.20
2016,08,13,04,30,17.20
2016,08,13,04,31,17.20
2016,08,13,04,32,17.20
2016,08,13,04,33,17.20
2016,08,13,04,34,17.20
2016,08,13,04,35,17.20
2016,08,13,04,36,17.10
2016,08,13,04,37,17.10
2016,08,13,04,38,17.10
2016,08,13,04,39,17.10
2016,08,13,04,40,17.10
2016,08,13,04,41,17.10
2016,08,13,04,42,17.10
2016,08,13,04,43,17.10
2016,08,13,04,44,17.10
2016,08,13,04,45,17.00
2016,08,13,04,46,17.00
2016,08,13,04,47,17.00
2016,08,13,04,48,17.00
2016,08,13,04,49,16.90
2016,08,13,04,50,16.90
2016,08,13,04,51,16.90
2016,08,13,04,52,16.90
2016,08,13,04,53,16.90
2016,08,13,04,54,16.90
2016,08,13,04,55,16.90
2016,08,13,04,56,16.90
2016,08,13,04,57,16.80
2016,08,13,04,58,16.80
2016,08,13,04,59,16.80
2016,08,13,05,00,16.80
2016,08,13,05,01,16.80
2016,08,13,05,02,16.80
2016,08,13,05,03,16.80
2016,08,13,05,04,16.80
2016,08,13,05,05,16.80
2016,08,13,05,06,16.80
2016,08,13,05,07,16.80
2016,08,13,05,08,16.80
2016,08,13,05,09,16.80
2016,08,13,05,10,16.80
2016,08,13,05,11,16.80
2016,08,13,05,12,16.80
2016,08,13,05,13,16.70
2016,08,13,05,14,16.70
2016,08,13,05,15,16.70
2016,08,13,05,16,16.70
2016,08,13,05,17,16.70
2016,08,13,05,18,16.60
2016,08,13,05,19,16.60
2016,08,13,05,20,16.60
2016,08,13,05,21,16.60
2016,08,13,05,22,16.50
2016,08,13,05,23,16.40
2016,08,13,05,24,16.40
2016,08,13,05,25,16.40
2016,08,13,05,26,16.40
2016,08,13,05,27,16.40
2016,08,13,05,28,16.40
2016,08,13,05,29,16.40
2016,08,13,05,30,16.40
2016,08,13,05,31,16.40
2016,08,13,05,32,16.40
2016,08,13,05,33,16.40
2016,08,13,05,34,16.40
2016,08,13,05,35,16.40
2016,08,13,05,36,16.40
2016,08,13,05,37,16.30
2016,08,13,05,38,16.30
2016,08,13,05,39,16.30
2016,08,13,05,40,16.20
2016,08,13,05,41,16.20
2016,08,13,05,42,16.20
2016,08,13,05,43,16.10
2016,08,13,05,44,16.10
2016,08,13,05,45,16.10
2016,08,13,05,46,16.00
2016,08,13,05,47,15.90
2016,08,13,05,48,15.80
2016,08,13,05,49,15.80
2016,08,13,05,50,15.70
2016,08,13,05,51,15.60
2016,08,13,05,52,15.60
2016,08,13,05,53,15.60
2016,08,13,05,54,15.50
2016,08,13,05,55,15.50
2016,08,13,05,56,15.50
2016,08,13,05,57,15.40
2016,08,13,05,58,15.40
2016,08,13,05,59,15.40
2016,08,13,06,00,15.40
2016,08,13,06,01,15.30
2016,08,13,06,02,15.30
2016,08,13,06,03,15.30
2016,08,13,06,04,15.30
2016,08,13,06,05,15.30
2016,08,13,06,06,15.30
2016,08,13,06,07,15.30
2016,08,13,06,08,15.30
2016,08,13,06,09,15.30
2016,08,13,06,10,15.30
2016,08,13,06,11,15.20
2016,08,13,06,12,15.20
2016,08,13,06,13,15.20
2016,08,13,06,14,15.20
2016,08,13,06,15,15.20
2016,08,13,06,16,15.30
2016,08,13,06,17,15.30
2016,08,13,06,18,15.30
2016,08,13,06,19,15.30
2016,08,13,06,20,15.30
2016,08,13,06,21,15.30
2016,08,13,06,22,15.30
2016,08,13,06,23,15.30
2016,08,13,06,24,15.30
2016,08,13,06,25,15.30
2016,08,13,06,26,15.20
2016,08,13,06,27,15.20
2016,08,13,06,28,15.20
2016,08,13,06,29,15.20
2016,08,13,06,30,15.20
2016,08,13,06,31,15.20
2016,08,13,06,32,15.10
2016,08,13,06,33,15.20
2016,08,13,06,34,15.20
2016,08,13,06,35,15.20
2016,08,13,06,36,15.20
2016,08,13,06,37,15.30
2016,08,13,06,38,15.30
2016,08,13,06,39,15.30
2016,08,13,06,40,15.30
2016,08,13,06,41,15.30
2016,08,13,06,42,15.30
2016,08,13,06,43,15.30
2016,08,13,06,44,15.20
2016,08,13,06,45,15.20
2016,08,13,06,46,15.20
2016,08,13,06,47,15.20
2016,08,13,06,48,15.20
2016,08,13,06,49,15.20
2016,08,13,06,50,15.20
2016,08,13,06,51,15.30
2016,08,13,06,52,15.30
2016,08,13,06,53,15.40
2016,08,13,06,54,15.40
2016,08,13,06,55,15.50
2016,08,13,06,56,15.50
2016,08,13,06,57,15.50
2016,08,13,06,58,15.50
2016,08,13,06,59,15.60
2016,08,13,07,00,15.60
2016,08,13,07,01,15.60
2016,08,13,07,02,15.60
2016,08,13,07,03,15.70
2016,08,13,07,04,15.70
2016,08,13,07,05,15.80
2016,08,13,07,06,15.80
2016,08,13,07,07,15.80
2016,08,13,07,08,15.80
2016,08,13,07,09,15.80
2016,08,13,07,10,15.90
2016,08,13,07,11,15.90
2016,08,13,07,12,16.00
2016,08,13,07,13,16.10
2016,08,13,07,14,16.10
2016,08,13,07,15,16.10
2016,08,13,07,16,16.10
2016,08,13,07,17,16.20
2016,08,13,07,18,16.20
2016,08,13,07,19,16.30
2016,08,13,07,20,16.30
2016,08,13,07,21,16.30
2016,08,13,07,22,16.40
2016,08,13,07,23,16.40
2016,08,13,07,24,16.40
2016,08,13,07,25,16.40
2016,08,13,07,26,16.60
2016,08,13,07,27,16.60
2016,08,13,07,28,16.70
2016,08,13,07,29,16.70
2016,08,13,07,30,16.70
2016,08,13,07,31,16.70
2016,08,13,07,32,16.80
2016,08,13,07,33,16.90
2016,08,13,07,34,17.00
2016,08,13,07,35,17.00
2016,08,13,07,36,17.10
2016,08,13,07,37,17.20
2016,08,13,07,38,17.30
2016,08,13,07,39,17.30
2016,08,13,07,40,17.30
2016,08,13,07,41,17.30
2016,08,13,07,42,17.40
2016,08,13,07,43,17.50
2016,08,13,07,44,17.50
2016,08,13,07,45,17.60
2016,08,13,07,46,17.70
2016,08,13,07,47,17.70
2016,08,13,07,48,17.80
2016,08,13,07,49,17.90
2016,08,13,07,50,17.90
2016,08,13,07,51,17.90
2016,08,13,07,52,17.90
2016,08,13,07,53,17.90
2016,08,13,07,54,17.90
2016,08,13,07,55,17.90
2016,08,13,07,56,17.90
2016,08,13,07,57,17.90
2016,08,13,07,58,17.80
2016,08,13,07,59,17.80
2016,08,13,08,00,17.80
2016,08,13,08,01,17.90
2016,08,13,08,02,17.90
2016,08,13,08,03,17.90
2016,08,13,08,04,18.00
2016,08,13,08,05,18.10
2016,08,13,08,06,18.20
2016,08,13,08,07,18.20
2016,08,13,08,08,18.30
2016,08,13,08,09,18.40
2016,08,13,08,10,18.40
2016,08,13,08,11,18.30
2016,08,13,08,12,18.20
2016,08,13,08,13,18.10
2016,08,13,08,14,17.90
2016,08,13,08,15,17.70
2016,08,13,08,16,17.50
2016,08,13,08,17,17.30
2016,08,13,08,18,17.20
2016,08,13,08,19,17.00
2016,08,13,08,20,16.90
2016,08,13,08,21,16.80
2016,08,13,08,22,16.70
2016,08,13,08,23,16.50
2016,08,13,08,24,16.40
2016,08,13,08,25,16.40
2016,08,13,08,26,16.40
2016,08,13,08,27,16.40
2016,08,13,08,28,16.40
2016,08,13,08,29,16.40
2016,08,13,08,30,16.40
2016,08,13,08,31,16.40
2016,08,13,08,32,16.40
2016,08,13,08,33,16.40
2016,08,13,08,34,16.40
2016,08,13,08,35,16.40
2016,08,13,08,36,16.40
2016,08,13,08,37,16.40
2016,08,13,08,38,16.40
2016,08,13,08,39,16.40
2016,08,13,08,40,16.40
2016,08,13,08,41,16.40
2016,08,13,08,42,16.30
2016,08,13,08,43,16.30
2016,08,13,08,44,16.30
2016,08,13,08,45,16.30
2016,08,13,08,46,16.30
2016,08,13,08,47,16.30
2016,08,13,08,48,16.30
2016,08,13,08,49,16.30
2016,08,13,08,50,16.40
2016,08,13,08,51,16.40
2016,08,13,08,52,16.40
2016,08,13,08,53,16.60
2016,08,13,08,54,16.60
2016,08,13,08,55,16.70
2016,08,13,08,56,16.70
2016,08,13,08,57,16.80
2016,08,13,08,58,16.90
2016,08,13,08,59,17.00
2016,08,13,09,00,17.00
2016,08,13,09,01,17.10
2016,08,13,09,02,17.20
2016,08,13,09,03,17.30
2016,08,13,09,04,17.30
2016,08,13,09,05,17.50
2016,08,13,09,06,17.50
2016,08,13,09,07,17.70
2016,08,13,09,08,17.80
2016,08,13,09,09,17.80
2016,08,13,09,10,17.90
2016,08,13,09,11,17.90
2016,08,13,09,12,18.10
2016,08,13,09,13,18.10
2016,08,13,09,14,18.10
2016,08,13,09,15,18.20
2016,08,13,09,16,18.20
2016,08,13,09,17,18.20
2016,08,13,09,18,18.20
2016,08,13,09,19,18.30
2016,08,13,09,20,18.40
2016,08,13,09,21,18.50
2016,08,13,09,22,18.50
2016,08,13,09,23,18.60
2016,08,13,09,24,18.70
2016,08,13,09,25,18.70
2016,08,13,09,26,18.80
2016,08,13,09,27,18.90
2016,08,13,09,28,18.90
2016,08,13,09,29,18.90
2016,08,13,09,30,18.90
2016,08,13,09,31,18.90
2016,08,13,09,32,18.90
2016,08,13,09,33,18.90
2016,08,13,09,34,18.70
2016,08,13,09,35,18.60
2016,08,13,09,36,18.50
2016,08,13,09,37,18.40
2016,08,13,09,38,18.30
2016,08,13,09,39,18.20
2016,08,13,09,40,18.20
2016,08,13,09,41,18.20
2016,08,13,09,42,18.20
2016,08,13,09,43,18.30
2016,08,13,09,44,18.30
2016,08,13,09,45,18.30
2016,08,13,09,46,18.30
2016,08,13,09,47,18.40
2016,08,13,09,48,18.50
2016,08,13,09,49,18.50
2016,08,13,09,50,18.60
2016,08,13,09,51,18.50
2016,08,13,09,52,18.40
2016,08,13,09,53,18.30
2016,08,13,09,54,18.10
2016,08,13,09,55,17.90
2016,08,13,09,56,17.70
2016,08,13,09,57,17.50
2016,08,13,09,58,17.40
2016,08,13,09,59,17.30
2016,08,13,10,00,17.20
2016,08,13,10,01,17.10
2016,08,13,10,02,17.10
2016,08,13,10,03,17.10
2016,08,13,10,04,17.20
2016,08,13,10,05,17.30
2016,08,13,10,06,17.40
2016,08,13,10,07,17.60
2016,08,13,10,08,17.80
2016,08,13,10,09,18.00
2016,08,13,10,10,18.20
2016,08,13,10,11,18.40
2016,08,13,10,12,18.60
2016,08,13,10,13,18.70
2016,08,13,10,14,18.60
2016,08,13,10,15,18.60
2016,08,13,10,16,18.50
2016,08,13,10,17,18.40
2016,08,13,10,18,18.40
2016,08,13,10,19,18.30
2016,08,13,10,20,18.20
2016,08,13,10,21,18.20
2016,08,13,10,22,18.20
2016,08,13,10,23,18.20
2016,08,13,10,24,18.20
2016,08,13,10,25,18.20
2016,08,13,10,26,18.30
2016,08,13,10,27,18.40
2016,08,13,10,28,18.50
2016,08,13,10,29,18.50
2016,08,13,10,30,18.50
2016,08,13,10,31,18.40
2016,08,13,10,32,18.20
2016,08,13,10,33,18.10
2016,08,13,10,34,17.80
2016,08,13,10,35,17.50
2016,08,13,10,36,17.30
2016,08,13,10,37,17.20
2016,08,13,10,38,17.10
2016,08,13,10,39,17.00
2016,08,13,10,40,17.00
2016,08,13,10,41,16.90
2016,08,13,10,42,16.90
2016,08,13,10,43,16.80
2016,08,13,10,44,16.80
2016,08,13,10,45,16.80
2016,08,13,10,46,16.80
2016,08,13,10,47,16.80
2016,08,13,10,48,16.70
2016,08,13,10,49,16.70
2016,08,13,10,50,16.70
2016,08,13,10,51,16.70
2016,08,13,10,52,16.60
2016,08,13,10,53,16.50
2016,08,13,10,54,16.40
2016,08,13,10,55,16.40
2016,08,13,10,56,16.40
2016,08,13,10,57,16.30
2016,08,13,10,58,16.30
2016,08,13,10,59,16.30
2016,08,13,11,00,16.40
2016,08,13,11,01,16.40
2016,08,13,11,02,16.40
2016,08,13,11,03,16.40
2016,08,13,11,04,16.40
2016,08,13,11,05,16.30
2016,08,13,11,06,16.30
2016,08,13,11,07,16.30
2016,08,13,11,08,16.30
2016,08,13,11,09,16.30
2016,08,13,11,10,16.30
2016,08,13,11,11,16.30
2016,08,13,11,12,16.30
2016,08,13,11,13,16.30
2016,08,13,11,14,16.40
2016,08,13,11,15,16.40
2016,08,13,11,16,16.40
2016,08,13,11,17,16.40
2016,08,13,11,18,16.50
2016,08,13,11,19,16.60
2016,08,13,11,20,16.60
2016,08,13,11,21,16.70
2016,08,13,11,22,16.70
2016,08,13,11,23,16.80
2016,08,13,11,24,16.90
2016,08,13,11,25,16.90
2016,08,13,11,26,17.00
2016,08,13,11,27,17.10
2016,08,13,11,28,17.10
2016,08,13,11,29,17.20
2016,08,13,11,30,17.30
2016,08,13,11,31,17.30
2016,08,13,11,32,17.40
2016,08,13,11,33,17.50
2016,08,13,11,34,17.60
2016,08,13,11,35,17.70
2016,08,13,11,36,17.80
2016,08,13,11,37,17.90
2016,08,13,11,38,17.90
2016,08,13,11,39,17.90
2016,08,13,11,40,17.90
2016,08,13,11,41,17.90
2016,08,13,11,42,18.00
2016,08,13,11,43,17.90
2016,08,13,11,44,17.90
2016,08,13,11,45,17.90
2016,08,13,11,46,18.00
2016,08,13,11,47,18.10
2016,08,13,11,48,18.10
2016,08,13,11,49,18.10
2016,08,13,11,50,18.10
2016,08,13,11,51,18.10
2016,08,13,11,52,18.20
2016,08,13,11,53,18.20
2016,08,13,11,54,18.20
2016,08,13,11,55,18.20
2016,08,13,11,56,18.20
2016,08,13,11,57,18.20
2016,08,13,11,58,18.20
2016,08,13,11,59,18.20
2016,08,13,12,00,18.20
2016,08,13,12,01,18.20
2016,08,13,12,02,18.10
2016,08,13,12,03,18.20
2016,08,13,12,04,18.20
2016,08,13,12,05,18.10
2016,08,13,12,06,18.10
2016,08,13,12,07,18.10
2016,08,13,12,08,18.20
2016,08,13,12,09,18.20
2016,08,13,12,10,18.30
2016,08,13,12,11,18.30
2016,08,13,12,12,18.40
2016,08,13,12,13,18.40
2016,08,13,12,14,18.40
2016,08,13,12,15,18.50
2016,08,13,12,16,18.50
2016,08,13,12,17,18.60
2016,08,13,12,18,18.70
2016,08,13,12,19,18.80
2016,08,13,12,20,18.80
2016,08,13,12,21,18.90
2016,08,13,12,22,19.00
2016,08,13,12,23,19.10
2016,08,13,12,24,19.10
2016,08,13,12,25,19.10
2016,08,13,12,26,19.20
2016,08,13,12,27,19.20
2016,08,13,12,28,19.20
2016,08,13,12,29,19.20
2016,08,13,12,30,19.10
2016,08,13,12,31,19.20
2016,08,13,12,32,19.20
2016,08,13,12,33,19.10
2016,08,13,12,34,19.10
2016,08,13,12,35,19.10
2016,08,13,12,36,19.10
2016,08,13,12,37,19.10
2016,08,13,12,38,19.10
2016,08,13,12,39,19.20
2016,08,13,12,40,19.30
2016,08,13,12,41,19.40
2016,08,13,12,42,19.40
2016,08,13,12,43,19.50
2016,08,13,12,44,19.60
2016,08,13,12,45,19.60
2016,08,13,12,46,19.60
2016,08,13,12,47,19.50
2016,08,13,12,48,19.40
2016,08,13,12,49,19.40
2016,08,13,12,50,19.50
2016,08,13,12,51,19.50
2016,08,13,12,52,19.50
2016,08,13,12,53,19.50
2016,08,13,12,54,19.50
2016,08,13,12,55,19.50
2016,08,13,12,56,19.40
2016,08,13,12,57,19.30
2016,08,13,12,58,19.20
2016,08,13,12,59,19.10
2016,08,13,13,00,19.10
2016,08,13,13,01,19.10
2016,08,13,13,02,19.10
2016,08,13,13,03,19.10
2016,08,13,13,04,19.10
2016,08,13,13,05,19.10
2016,08,13,13,06,19.10
2016,08,13,13,07,19.10
2016,08,13,13,08,19.20
2016,08,13,13,09,19.20
2016,08,13,13,10,19.20
2016,08,13,13,11,19.20
2016,08,13,13,12,19.10
2016,08,13,13,13,19.10
2016,08,13,13,14,19.10
2016,08,13,13,15,19.10
2016,08,13,13,16,19.10
2016,08,13,13,17,19.10
2016,08,13,13,18,19.10
2016,08,13,13,19,19.10
2016,08,13,13,20,19.10
2016,08,13,13,21,19.10
2016,08,13,13,22,19.10
2016,08,13,13,23,19.10
2016,08,13,13,24,19.20
2016,08,13,13,25,19.30
2016,08,13,13,26,19.30
2016,08,13,13,27,19.40
2016,08,13,13,28,19.40
2016,08,13,13,29,19.50
2016,08,13,13,30,19.60
2016,08,13,13,31,19.70
2016,08,13,13,32,19.80
2016,08,13,13,33,19.80
2016,08,13,13,34,19.80
2016,08,13,13,35,19.90
2016,08,13,13,36,19.90
2016,08,13,13,37,19.90
2016,08,13,13,38,19.90
2016,08,13,13,39,19.90
2016,08,13,13,40,20.00
2016,08,13,13,41,20.00
2016,08,13,13,42,20.10
2016,08,13,13,43,20.10
2016,08,13,13,44,20.20
2016,08,13,13,45,20.20
2016,08,13,13,46,20.20
2016,08,13,13,47,20.20
2016,08,13,13,48,20.20
2016,08,13,13,49,20.20
2016,08,13,13,50,20.20
2016,08,13,13,51,20.20
2016,08,13,13,52,20.20
2016,08,13,13,53,20.20
2016,08,13,13,54,20.30
2016,08,13,13,55,20.30
2016,08,13,13,56,20.40
2016,08,13,13,57,20.40
2016,08,13,13,58,20.40
2016,08,13,13,59,20.40
2016,08,13,14,00,20.30
2016,08,13,14,01,20.20
2016,08,13,14,02,20.20
2016,08,13,14,03,20.10
2016,08,13,14,04,20.10
2016,08,13,14,05,20.20
2016,08,13,14,06,20.30
2016,08,13,14,07,20.40
2016,08,13,14,08,20.40
2016,08,13,14,09,20.50
2016,08,13,14,10,20.50
2016,08,13,14,11,20.60
2016,08,13,14,12,20.60
2016,08,13,14,13,20.60
2016,08,13,14,14,20.60
2016,08,13,14,15,20.60
2016,08,13,14,16,20.60
2016,08,13,14,17,20.60
2016,08,13,14,18,20.60
2016,08,13,14,19,20.50
2016,08,13,14,20,20.40
2016,08,13,14,21,20.40
2016,08,13,14,22,20.30
2016,08,13,14,23,20.30
2016,08,13,14,24,20.40
2016,08,13,14,25,20.50
2016,08,13,14,26,20.40
2016,08,13,14,27,20.40
2016,08,13,14,28,20.30
2016,08,13,14,29,20.30
2016,08,13,14,30,20.20
2016,08,13,14,31,20.20
2016,08,13,14,32,20.20
2016,08,13,14,33,20.20
2016,08,13,14,34,20.20
2016,08,13,14,35,20.10
2016,08,13,14,36,20.00
2016,08,13,14,37,19.80
2016,08,13,14,38,19.70
2016,08,13,14,39,19.70
2016,08,13,14,40,19.70
2016,08,13,14,41,19.70
2016,08,13,14,42,19.80
2016,08,13,14,43,19.70
2016,08,13,14,44,19.70
2016,08,13,14,45,19.60
2016,08,13,14,46,19.60
2016,08,13,14,47,19.50
2016,08,13,14,48,19.60
2016,08,13,14,49,19.60
2016,08,13,14,50,19.50
2016,08,13,14,51,19.50
2016,08,13,14,52,19.40
2016,08,13,14,53,19.40
2016,08,13,14,54,19.40
2016,08,13,14,55,19.50
2016,08,13,14,56,19.60
2016,08,13,14,57,19.70
2016,08,13,14,58,19.90
2016,08,13,14,59,19.90
2016,08,13,15,00,19.90
2016,08,13,15,01,20.00
2016,08,13,15,02,20.10
2016,08,13,15,03,20.20
2016,08,13,15,04,20.30
2016,08,13,15,05,20.40
2016,08,13,15,06,20.30
2016,08,13,15,07,20.20
2016,08,13,15,08,20.20
2016,08,13,15,09,20.20
2016,08,13,15,10,20.20
2016,08,13,15,11,20.10
2016,08,13,15,12,20.00
2016,08,13,15,13,19.90
2016,08,13,15,14,19.80
2016,08,13,15,15,19.70
2016,08,13,15,16,19.70
2016,08,13,15,17,19.60
2016,08,13,15,18,19.70
2016,08,13,15,19,19.70
2016,08,13,15,20,19.70
2016,08,13,15,21,19.60
2016,08,13,15,22,19.50
2016,08,13,15,23,19.40
2016,08,13,15,24,19.40
2016,08,13,15,25,19.30
2016,08,13,15,26,19.30
2016,08,13,15,27,19.40
2016,08,13,15,28,19.50
2016,08,13,15,29,19.60
2016,08,13,15,30,19.50
2016,08,13,15,31,19.50
2016,08,13,15,32,19.50
2016,08,13,15,33,19.50
2016,08,13,15,34,19.40
2016,08,13,15,35,19.40
2016,08,13,15,36,19.40
2016,08,13,15,37,19.50
2016,08,13,15,38,19.50
2016,08,13,15,39,19.50
2016,08,13,15,40,19.60
2016,08,13,15,41,19.70
2016,08,13,15,42,19.60
2016,08,13,15,43,19.60
2016,08,13,15,44,19.60
2016,08,13,15,45,19.70
2016,08,13,15,46,19.70
2016,08,13,15,47,19.70
2016,08,13,15,48,19.70
2016,08,13,15,49,19.60
2016,08,13,15,50,19.60
2016,08,13,15,51,19.60
2016,08,13,15,52,19.50
2016,08,13,15,53,19.50
2016,08,13,15,54,19.50
2016,08,13,15,55,19.50
2016,08,13,15,56,19.50
2016,08,13,15,57,19.40
2016,08,13,15,58,19.30
2016,08,13,15,59,19.20
2016,08,13,16,00,19.00
2016,08,13,16,01,18.90
2016,08,13,16,02,18.90
2016,08,13,16,03,18.90
2016,08,13,16,04,18.80
2016,08,13,16,05,18.80
2016,08,13,16,06,18.80
2016,08,13,16,07,18.90
2016,08,13,16,08,18.80
2016,08,13,16,09,18.80
2016,08,13,16,10,18.80
2016,08,13,16,11,18.90
2016,08,13,16,12,18.90
2016,08,13,16,13,18.90
2016,08,13,16,14,18.90
2016,08,13,16,15,18.90
2016,08,13,16,16,18.90
2016,08,13,16,17,19.00
2016,08,13,16,18,19.10
2016,08,13,16,19,19.20
2016,08,13,16,20,19.30
2016,08,13,16,21,19.40
2016,08,13,16,22,19.50
2016,08,13,16,23,19.60
2016,08,13,16,24,19.60
2016,08,13,16,25,19.70
2016,08,13,16,26,19.80
2016,08,13,16,27,19.80
2016,08,13,16,28,19.90
2016,08,13,16,29,19.90
2016,08,13,16,30,19.70
2016,08,13,16,31,19.50
2016,08,13,16,32,19.40
2016,08,13,16,33,19.20
2016,08,13,16,34,19.10
2016,08,13,16,35,19.00
2016,08,13,16,36,18.90
2016,08,13,16,37,18.90
2016,08,13,16,38,18.90
2016,08,13,16,39,18.90
2016,08,13,16,40,19.10
2016,08,13,16,41,19.10
2016,08,13,16,42,19.10
2016,08,13,16,43,19.10
2016,08,13,16,44,19.10
2016,08,13,16,45,19.10
2016,08,13,16,46,19.10
2016,08,13,16,47,19.10
2016,08,13,16,48,19.00
2016,08,13,16,49,18.90
2016,08,13,16,50,18.70
2016,08,13,16,51,18.60
2016,08,13,16,52,18.40
2016,08,13,16,53,18.30
2016,08,13,16,54,18.20
2016,08,13,16,55,18.10
2016,08,13,16,56,17.90
2016,08,13,16,57,17.90
2016,08,13,16,58,17.80
2016,08,13,16,59,17.60
2016,08,13,17,00,17.40
2016,08,13,17,01,17.30
2016,08,13,17,02,17.10
2016,08,13,17,03,17.10
2016,08,13,17,04,17.00
2016,08,13,17,05,17.00
2016,08,13,17,06,16.90
2016,08,13,17,07,16.90
2016,08,13,17,08,16.80
2016,08,13,17,09,16.70
2016,08,13,17,10,16.80
2016,08,13,17,11,16.80
2016,08,13,17,12,16.70
2016,08,13,17,13,16.70
2016,08,13,17,14,16.70
2016,08,13,17,15,16.70
2016,08,13,17,16,16.70
2016,08,13,17,17,16.70
2016,08,13,17,18,16.70
2016,08,13,17,19,16.70